Regional Weather Roundup
Issued by NWS

Home | Current Version | Previous Version | Graphics & Text | Print | Product List | Glossary On
Versions: 1 2 3 4 5 6 7 8 9 10 11 12 13 14 15 16 17 18 19 20 21 22 23 24 25 26 27 28 29 30 31 32 33 34 35 36 37 38 39 40 41 42 43 44 45 46 47 48 49 50
000
ASUS43 KIND 282159
RWRIN

WEATHER ROUNDUP FOR INDIANA
NATIONAL WEATHER SERVICE INDIANAPOLIS IN
600 PM EDT SUN AUG 28 2016

NOTE: "FAIR" INDICATES FEW OR NO CLOUDS BELOW 12,000 FEET WITH NO
SIGNIFICANT WEATHER AND/OR OBSTRUCTIONS TO VISIBILITY.

* - STATION DOES NOT REPORT WEATHER SUCH AS PRECIPITATION OR FOG.

+ - STATION NOT QUALITY CONTROLLED BY THE NATIONAL WEATHER SERVICE.
    USE DATA WITH CAUTION...ESPECIALLY DEWPOINT AND RELATIVE
    HUMIDITY OBSERVATIONS.

INZ001>003-010>013-019-020-282300-
NORTHWEST INDIANA

CITY           SKY/WX    TMP DP  RH WIND       PRES   REMARKS
GARY /AIRPORT/ PTSUNNY   77  73  88 NE14      30.16F
KNOX *+        CLOUDY    75  50  41 CALM      30.17F
MONTICELLO +   PTSUNNY   77  65  65 E6        30.16S
RENSSELAER +   PTSUNNY   77  70  78 E5        30.16F

$$

LMZ046-743>745-282300-
SOUTHERN LAKE MICHIGAN

STATION/POSITION TIME  TEMP    WIND        PRES    WAVE
                       AIR SEA DIR/SP/G            HT
                 (UTC) (F)     (DEG/KT/KT) (MB)    (FT)
BURNS HARBOR     2100   75      40/  9/ 10 1022.0F
MICHIGAN CITY    2100   74      20/  9/ 10   N/A
5NW MICH CITY    2100   75 77   50/ 10/ 10   N/A     2

$$

INZ004-005-014>016-021>024-282300-
NORTH CENTRAL INDIANA

CITY           SKY/WX    TMP DP  RH WIND       PRES   REMARKS
GOSHEN         CLOUDY    74  69  85 NE3       30.18S
PERU/GRISSOM   TSTM      82  70  65 NW23G33   30.15S
SOUTH BEND     PTSUNNY   77  73  87 W6        30.18F

$$

INZ006>009-017-018-025>027-282300-
NORTHEAST INDIANA

CITY           SKY/WX    TMP DP  RH WIND       PRES   REMARKS
ANGOLA *+      CLOUDY    70  63  78 E9        30.19F
FORT WAYNE     PTSUNNY   77  66  68 N9        30.17F

$$

INZ028-029-035-036-043>045-051>053-282300-
WEST CENTRAL INDIANA

CITY           SKY/WX    TMP DP  RH WIND       PRES   REMARKS
CRAWFORDSVL +  SUNNY     86  71  60 CALM      30.15R
GREENCASTLE +  MOSUNNY   86  75  70 CALM      30.14F HX  95
LAFAYETTE      TSTM      77  74  90 S8        30.15R FOG
TERRE HAUTE    PTSUNNY   91  73  55 NE3       30.12S HX  99

$$

INZ030>032-037>040-046>048-054>057-064-065-282300-
CENTRAL INDIANA

CITY           SKY/WX    TMP DP  RH WIND       PRES   REMARKS
COLUMBUS       MOSUNNY   88  75  66 NE6       30.13F HX  97
INDIANAPOLIS   CLOUDY    84  71  65 NE13G26   30.14S
-EAGLE CREEK   CLOUDY    84  72  67 E12       30.14S THUNDER
KOKOMO *+      MOSUNNY   88  73  62 CALM      30.16R HX  96
MT COMFORT *+  MOSUNNY   82  77  83 CALM      30.16S
SHELBYVILLE    MOSUNNY   90  72  55 CALM      30.14S HX  97

$$

INZ033-034-041-042-049-050-058-059-282300-
EAST CENTRAL INDIANA

CITY           SKY/WX    TMP DP  RH WIND       PRES   REMARKS
MUNCIE         CLOUDY    89  73  59 NE6       30.16S HX  97

$$

INZ060-061-067>069-081>083-085>088-282300-
SOUTHWEST INDIANA

CITY           SKY/WX    TMP DP  RH WIND       PRES   REMARKS
EVANSVILLE     CLOUDY    92  73  53 CALM      30.09F HX 100
HUNTINGBURG *+ SUNNY     91  73  55 CALM      30.10S HX 100

$$

INZ062-063-066-070>080-084-089>092-282300-
SOUTH CENTRAL AND SOUTHEAST INDIANA

CITY           SKY/WX    TMP DP  RH WIND       PRES   REMARKS
BLOOMINGTON    PTSUNNY   90  73  57 N7        30.13S HX  98
MADISON *+     SUNNY     91  70  49 S9        30.16R HX  97

$$





USA.gov is the U.S. government's official web portal to all federal, state and local government web resources and services.